Lid_Strength_Index
1 5 8 8 13 13 15 13 10 9 9 10 6 7 8 7 9 11 2 1 1 1 -0 -0 -1 -1 -1 -1 -1 -1 -1 -1 -1 -1 -1 -1 -1 -1 -1 -1 -1 -1 -1 -1 -1 -1 -1 -1 -1
2 5 8 11 15 17 15 12 11 9 8 7 6 6 7 9 5 5 4 1 0 0 -0 -0 -1 -1 -1 -1 -1 -1 -1 -1 -1 -1 -1 -1 -1 -1 -1 -1 -1 -1 -1 -1 -1 -1 -1 -1 -1
4 6 10 13 16 17 14 10 10 9 8 7 7 5 6 7 4 4 2 1 0 0 -0 -0 -1 -1 -1 -1 -1 -1 -1 -1 -1 -1 -1 -1 -1 -1 -1 -1 -1 -1 -1 -1 -1 -1 -2 -1 -1
6 8 10 14 15 13 12 10 10 9 8 7 5 8 5 3 3 2 1 0 1 0 -0 -0 -1 -1 -1 -1 -1 -1 -1 -1 -1 -1 -1 -1 -1 -1 -1 -1 -1 -1 -1 -1 -1 -1 -1 -1 -1
7 10 13 15 14 12 10 10 9 10 10 7 6 8 7 4 2 1 1 1 1 1 0 -0 -1 -1 -1 -1 -1 -1 -1 -1 -1 -1 -1 -1 -1 -1 -1 -1 -1 -1 -2 -2 -1 -1 -1 -2 -2
10 10 15 15 13 11 10 10 9 10 8 7 7 7 7 3 3 2 1 1 0 1 0 -0 -1 -1 -1 -1 -1 -1 -1 -1 -1 -1 -1 -1 -1 -1 -1 -1 -1 -1 -2 -2 -2 -1 -2 -1 -2
11 13 14 14 12 11 10 9 9 8 8 8 8 8 7 4 2 1 1 1 1 0 0 0 -0 -0 -1 -1 -1 -1 -1 -1 -1 -1 -1 -1 -1 -1 -1 -1 -1 -1 -1 -2 -2 -2 -2 -2 -2
10 12 14 13 11 12 10 9 7 8 7 6 6 11 8 5 2 1 1 1 1 1 0 0 0 -0 -0 -0 -1 -1 -1 -1 -1 -1 -1 -1 -1 -1 -1 -1 -1 -1 -1 -2 -2 -2 -2 -3 -3
9 14 15 13 12 11 9 10 6 6 7 6 7 8 8 5 2 2 3 2 2 1 1 0 0 0 -0 -0 -0 -1 -1 -1 -1 -1 -1 -0 -0 -0 -0 -1 -1 -1 -1 -1 -2 -2 -2 -3 -3
12 15 14 11 10 10 9 10 9 8 8 7 8 7 7 7 3 4 4 4 3 2 1 1 0 0 0 -0 -0 -0 -0 -0 -0 -0 -0 0 0 0 -0 -0 -1 -1 -1 -1 -1 -2 -2 -2 0
13 14 11 10 8 8 10 10 8 9 10 8 10 9 7 8 5 4 4 3 3 2 1 1 1 0 0 0 -0 -0 -0 -0 -0 -0 -0 -0 -0 0 -0 0 0 1 -1 0 -0 0 0 0 0
14 11 10 9 7 8 10 9 9 8 7 7 8 8 8 8 7 7 6 5 3 2 2 1 0 0 0 0 0 1 0 -0 -0 -0 -0 -0 0 0 0 0 0 0 0 0 0 0 0 0 1
12 10 9 7 7 9 9 8 8 9 7 6 8 8 8 9 9 8 9 8 6 3 2 1 1 1 0 1 0 1 0 0 0 -0 0 -0 0 0 0 -0 0 0 0 1 1 1 0 1 1
9 9 8 8 9 8 11 10 8 8 7 7 8 8 8 8 8 8 9 8 7 3 2 2 1 1 1 1 1 1 1 0 0 -0 0 0 0 0 0 0 0 0 0 0 1 2 2 2 2
8 10 10 9 9 10 10 12 11 9 7 8 7 7 9 8 8 8 6 7 6 2 2 2 2 2 1 2 1 1 1 0 1 0 0 -0 0 1 0 0 0 0 1 1 2 2 2 2 2
11 11 14 9 9 9 9 14 11 9 9 8 8 8 9 9 8 7 7 5 4 2 2 2 1 3 3 2 1 1 1 1 1 1 0 0 0 0 1 1 1 0 1 2 2 3 4 4 3
13 15 14 11 9 10 11 13 10 9 8 9 8 7 7 7 7 6 6 3 3 3 2 2 2 3 3 3 2 1 1 2 1 1 1 0 0 -0 0 1 1 1 2 2 2 3 3 3 4
14 14 13 13 11 10 12 11 9 9 8 8 8 7 7 7 6 5 5 5 6 8 7 7 6 6 5 4 2 1 2 2 2 2 2 1 1 0 1 1 1 2 2 2 2 2 3 3 4
11 12 13 11 10 11 11 11 9 9 9 9 8 8 7 7 4 4 5 3 2 3 6 7 6 5 3 2 2 2 3 2 2 0 0 1 1 1 1 1 1 2 1 1 2 2 3 3 4
11 12 13 11 10 11 11 12 10 10 9 9 8 8 7 5 5 4 4 4 3 3 3 3 2 2 2 2 2 1 2 1 1 1 1 1 0 0 0 1 1 1 1 1 1 2 3 3 2
12 13 13 12 11 11 12 13 12 10 9 8 8 8 8 6 6 5 5 4 4 3 3 3 4 3 3 2 2 3 2 2 2 2 1 1 0 0 0 0 0 1 1 1 1 2 3 3 2
13 10 10 11 13 16 12 17 13 11 10 9 8 8 7 6 6 5 5 5 4 3 3 3 3 2 2 2 3 3 3 4 3 2 1 1 0 0 0 0 0 1 1 1 1 1 2 2 3
11 9 10 11 14 15 14 16 14 12 11 10 9 8 8 8 7 6 5 5 4 3 4 4 4 3 2 3 3 3 4 3 3 2 2 2 1 0 0 0 0 1 1 1 1 1 1 1 2
8 10 12 13 15 18 15 15 15 13 12 10 9 8 8 8 7 7 6 6 6 5 4 5 5 4 3 3 3 4 4 5 5 4 4 3 2 2 1 0 0 0 1 1 1 1 1 1 2
11 14 18 18 18 18 13 15 14 11 10 9 9 9 8 8 8 8 8 7 7 6 6 6 6 6 6 5 4 4 5 5 4 4 4 3 3 2 1 1 1 1 1 1 1 1 1 1 2
12 13 17 19 20 17 13 16 13 10 9 9 8 8 8 9 9 8 8 8 8 8 8 8 7 8 7 7 7 6 5 4 4 4 3 2 2 2 1 1 1 1 1 1 1 1 1 1 1
11 13 11 15 15 18 15 13 11 9 9 9 9 9 9 9 9 10 10 9 9 8 8 8 8 8 8 8 7 7 6 6 6 5 4 3 3 2 2 1 1 1 1 1 1 1 1 1 1
10 9 15 14 20 21 17 15 15 12 11 10 10 9 10 10 10 10 9 9 9 9 8 8 8 8 8 8 7 6 7 7 7 6 6 5 5 4 3 2 2 2 2 1 1 1 1 2 1
11 12 12 13 15 20 21 16 11 10 11 11 12 12 12 11 11 10 10 9 9 9 9 8 8 8 8 7 7 8 7 7 8 8 8 7 6 6 5 4 3 2 2 1 1 2 1 2 2
10 13 13 17 18 16 16 16 9 10 11 11 11 10 11 11 11 10 10 9 9 9 9 8 7 7 7 8 8 8 8 9 9 9 9 8 7 6 6 5 4 3 2 1 2 2 2 2 2